Location: Losili
(4.4086°N, 32.7049°E)
Time: 20:09:21
(UTC+00:00)

GPS 2-15 Rocket1 - Pass Details

Date: 18 September 2019
Orbit: 624 x 675 km, 19.8° (Epoch: 22 October)

Event Time Altitude Azimuth Distance (km) Brightness Sun altitude
Rises 16:37:39 0° 248° (WSW) 2,886 7.8 -13.4°
Reaches altitude 10° 16:40:00 10° 248° (WSW) 1,983 6.7 -14.0°
Maximum altitude 16:44:39 86° 161° (SSE) 629 3.0 -15.1°
Enters shadow 16:47:21 25° 72° (ENE) 1,260 4.1 -15.8°
